• In Uzbekistan
  • List of Countries
  • For 7 days
  • Water Temperature
  • Satellite Maps
  • Weather Map
  • Weather Widgets
  • user-avatar
    Login

    Hourly Weather Durres

    Today, 24 April, Wednesday

    Time Temperature Precipitation Wind Pressure Humidity
    00:00 +15°C° 0 mm 6 mps 762 mmHg 69%
    01:00 +14°C° 0 mm 6 mps 762 mmHg 75%
    02:00 +13°C° 0 mm 5 mps 762 mmHg 74%
    03:00 +13°C° 0 mm 4 mps 762 mmHg 73%
    04:00 +13°C° 0 mm 4 mps 762 mmHg 72%
    05:00 +16°C° 0 mm 3 mps 762 mmHg 69%
    06:00 +17°C° 0 mm 3 mps 762 mmHg 66%
    07:00 +19°C° 0 mm 4 mps 763 mmHg 63%
    08:00 +21°C° 0 mm 3 mps 763 mmHg 56%
    09:00 +24°C° 0 mm 2 mps 763 mmHg 48%
    10:00 +26°C° 0 mm 1 mps 763 mmHg 40%
    11:00 +27°C° 0 mm 2 mps 763 mmHg 38%
    12:00 +28°C° 0 mm 2 mps 762 mmHg 36%
    13:00 +28°C° 0 mm 3 mps 762 mmHg 34%
    14:00 +27°C° 0 mm 3 mps 762 mmHg 38%
    15:00 +26°C° 0 mm 3 mps 762 mmHg 42%
    16:00 +25°C° 0 mm 3 mps 762 mmHg 46%
    17:00 +23°C° 0 mm 2 mps 762 mmHg 49%
    18:00 +20°C° 0 mm 2 mps 762 mmHg 52%
    19:00 +18°C° 0 mm 2 mps 763 mmHg 54%
    20:00 +18°C° 0 mm 2 mps 763 mmHg 53%
    21:00 +17°C° 0 mm 2 mps 764 mmHg 52%
    22:00 +18°C° 0 mm 1 mps 764 mmHg 51%
    23:00 +18°C° 0 mm 1 mps 764 mmHg 54%

    Tomorrow, 25 April, Thursday

    Time Temperature Precipitation Wind Pressure Humidity
    00:00 +18°C° 0 mm 1 mps 764 mmHg 57%
    01:00 +16°C° 0 mm 1 mps 764 mmHg 60%
    02:00 +16°C° 0 mm 1 mps 764 mmHg 63%
    03:00 +16°C° 0 mm 1 mps 764 mmHg 66%
    04:00 +16°C° 0 mm 1 mps 764 mmHg 70%
    05:00 +18°C° 0 mm 1 mps 764 mmHg 67%
    06:00 +20°C° 0 mm 1 mps 764 mmHg 65%
    07:00 +22°C° 0 mm 1 mps 764 mmHg 62%
    08:00 +23°C° 0 mm 1 mps 764 mmHg 56%
    09:00 +25°C° 0 mm 1 mps 764 mmHg 49%
    10:00 +27°C° 0 mm 1 mps 764 mmHg 43%
    11:00 +27°C° 0 mm 2 mps 764 mmHg 44%
    12:00 +27°C° 0 mm 3 mps 764 mmHg 44%
    13:00 +28°C° 0 mm 4 mps 764 mmHg 45%
    14:00 +27°C° 0 mm 3 mps 763 mmHg 47%
    15:00 +26°C° 0 mm 3 mps 763 mmHg 50%
    16:00 +25°C° 0 mm 2 mps 763 mmHg 52%
    17:00 +23°C° 0 mm 2 mps 763 mmHg 55%
    18:00 +22°C° 0 mm 1 mps 763 mmHg 59%
    19:00 +20°C° 0 mm 1 mps 763 mmHg 63%
    20:00 +20°C° 0 mm 1 mps 764 mmHg 63%
    21:00 +20°C° 0 mm 1 mps 764 mmHg 64%
    22:00 +19°C° 0 mm 1 mps 764 mmHg 65%
    23:00 +19°C° 0 mm 1 mps 764 mmHg 65%

    Day after tomorrow, 26 April, Friday

    Time Temperature Precipitation Wind Pressure Humidity
    00:00 +19°C° 0 mm 1 mps 764 mmHg 66%
    01:00 +18°C° 0 mm 1 mps 764 mmHg 66%
    02:00 +18°C° 0 mm 1 mps 763 mmHg 66%
    03:00 +18°C° 0 mm 1 mps 763 mmHg 66%
    04:00 +18°C° 0 mm 1 mps 763 mmHg 66%
    05:00 +19°C° 0 mm 1 mps 763 mmHg 62%
    06:00 +21°C° 0 mm 1 mps 763 mmHg 59%
    07:00 +22°C° 0 mm 1 mps 763 mmHg 55%
    08:00 +24°C° 0 mm 1 mps 763 mmHg 50%
    09:00 +26°C° 0 mm 1 mps 763 mmHg 45%
    10:00 +28°C° 0 mm 1 mps 763 mmHg 40%
    11:00 +28°C° 0 mm 2 mps 762 mmHg 41%
    12:00 +28°C° 0 mm 2 mps 762 mmHg 42%
    13:00 +29°C° 0 mm 3 mps 762 mmHg 43%
    14:00 +28°C° 0 mm 3 mps 761 mmHg 45%
    15:00 +27°C° 0 mm 2 mps 761 mmHg 47%
    16:00 +26°C° 0 mm 2 mps 760 mmHg 49%
    17:00 +24°C° 0 mm 2 mps 760 mmHg 54%
    18:00 +21°C° 0 mm 2 mps 760 mmHg 59%
    19:00 +19°C° 0 mm 2 mps 760 mmHg 64%
    20:00 +19°C° 0 mm 3 mps 760 mmHg 66%
    21:00 +19°C° 0 mm 3 mps 760 mmHg 67%
    22:00 +19°C° 0 mm 4 mps 761 mmHg 69%
    23:00 +18°C° 0 mm 4 mps 760 mmHg 70%

    27 April, Saturday

    Time Temperature Precipitation Wind Pressure Humidity
    00:00 +18°C° 0 mm 3 mps 760 mmHg 71%
    01:00 +18°C° 0 mm 3 mps 760 mmHg 72%
    02:00 +17°C° 0 mm 3 mps 760 mmHg 72%
    03:00 +17°C° 0 mm 3 mps 760 mmHg 72%
    04:00 +17°C° 0 mm 3 mps 759 mmHg 73%
    05:00 +18°C° 0 mm 3 mps 759 mmHg 70%
    06:00 +19°C° 0 mm 3 mps 760 mmHg 68%
    07:00 +20°C° 0 mm 3 mps 760 mmHg 65%
    08:00 +20°C° 0.2 mm 3 mps 760 mmHg 64%
    09:00 +21°C° 0.2 mm 3 mps 760 mmHg 63%
    10:00 +21°C° 0.2 mm 3 mps 760 mmHg 62%
    11:00 +22°C° 0 mm 4 mps 760 mmHg 62%
    12:00 +22°C° 0 mm 5 mps 759 mmHg 63%
    13:00 +22°C° 0 mm 5 mps 759 mmHg 63%
    14:00 +21°C° 0 mm 5 mps 759 mmHg 64%
    15:00 +21°C° 0 mm 5 mps 759 mmHg 65%
    16:00 +20°C° 0 mm 5 mps 759 mmHg 66%
    17:00 +19°C° 0 mm 5 mps 759 mmHg 75%
    18:00 +16°C° 0 mm 5 mps 759 mmHg 83%
    19:00 +14°C° 0 mm 5 mps 759 mmHg 92%
    20:00 +14°C° 0 mm 4 mps 760 mmHg 92%
    21:00 +14°C° 0 mm 3 mps 760 mmHg 91%
    22:00 +14°C° 0 mm 2 mps 761 mmHg 91%
    23:00 +14°C° 0 mm 1 mps 760 mmHg 90%

    28 April, Sunday

    Time Temperature Precipitation Wind Pressure Humidity
    00:00 +13°C° 0 mm 1 mps 760 mmHg 90%
    01:00 +13°C° 0 mm 1 mps 760 mmHg 89%
    02:00 +13°C° 0 mm 1 mps 760 mmHg 87%
    03:00 +13°C° 0 mm 1 mps 760 mmHg 85%
    04:00 +12°C° 0 mm 1 mps 760 mmHg 83%
    05:00 +14°C° 0 mm 1 mps 759 mmHg 76%
    06:00 +15°C° 0 mm 1 mps 759 mmHg 69%
    07:00 +16°C° 0 mm 1 mps 759 mmHg 61%
    08:00 +19°C° 0 mm 1 mps 759 mmHg 56%
    09:00 +20°C° 0 mm 1 mps 759 mmHg 51%
    10:00 +22°C° 0 mm 1 mps 758 mmHg 46%
    11:00 +22°C° 0 mm 1 mps 758 mmHg 46%
    12:00 +23°C° 0 mm 2 mps 758 mmHg 45%
    13:00 +22°C° 0 mm 3 mps 757 mmHg 45%
    14:00 +22°C° 0 mm 3 mps 757 mmHg 47%
    15:00 +21°C° 0 mm 3 mps 757 mmHg 49%
    16:00 +21°C° 0 mm 3 mps 757 mmHg 51%
    17:00 +19°C° 0 mm 4 mps 757 mmHg 57%
    18:00 +16°C° 0 mm 5 mps 757 mmHg 64%
    19:00 +15°C° 0 mm 6 mps 757 mmHg 70%
    20:00 +14°C° 0 mm 6 mps 758 mmHg 71%
    21:00 +14°C° 0 mm 6 mps 758 mmHg 72%
    22:00 +13°C° 0 mm 5 mps 758 mmHg 73%
    23:00 +13°C° 0 mm 5 mps 758 mmHg 73%

    29 April, Monday

    Time Temperature Precipitation Wind Pressure Humidity
    00:00 +13°C° 0 mm 5 mps 758 mmHg 72%
    01:00 +12°C° 0 mm 5 mps 758 mmHg 72%
    02:00 +12°C° 0.2 mm 5 mps 758 mmHg 72%
    03:00 +12°C° 0.2 mm 5 mps 757 mmHg 73%
    04:00 +12°C° 0.2 mm 5 mps 757 mmHg 73%
    05:00 +13°C° 0.3 mm 5 mps 757 mmHg 71%
    06:00 +13°C° 0.3 mm 5 mps 757 mmHg 69%
    07:00 +14°C° 0.3 mm 5 mps 757 mmHg 67%
    08:00 +15°C° 0.1 mm 5 mps 757 mmHg 65%
    09:00 +16°C° 0.1 mm 5 mps 756 mmHg 63%
    10:00 +17°C° 0.1 mm 5 mps 756 mmHg 60%
    11:00 +17°C° 0 mm 5 mps 756 mmHg 58%
    12:00 +19°C° 0 mm 5 mps 756 mmHg 55%
    13:00 +19°C° 0 mm 5 mps 756 mmHg 52%
    14:00 +19°C° 0.2 mm 5 mps 756 mmHg 54%
    15:00 +17°C° 0.2 mm 5 mps 756 mmHg 56%
    16:00 +17°C° 0.2 mm 5 mps 756 mmHg 58%
    17:00 +15°C° 1.3 mm 4 mps 756 mmHg 68%
    18:00 +14°C° 1.3 mm 3 mps 756 mmHg 77%
    19:00 +13°C° 1.3 mm 2 mps 756 mmHg 87%
    20:00 +13°C° 1 mm 2 mps 757 mmHg 88%
    21:00 +13°C° 1 mm 2 mps 757 mmHg 89%
    22:00 +13°C° 1 mm 2 mps 757 mmHg 90%
    23:00 +13°C° 0.2 mm 2 mps 757 mmHg 89%
    Show more